When you browse on this site, cookies collect data to enhance your experience and personalize the content and advertising you see.
Visit our Privacy Policy to learn more. By continuing to use the site, you agree to this use of cookies and data.
  • In Slovakia
  • List of Countries
  • For 7 days
  • Water Temperature
  • Satellite Maps
  • Weather Map
  • Weather Widgets
  • user-avatar
    Login

    Hourly Weather Idzhewan

    Today, 23 January, Wednesday

    Time Temperature Precipitation Wind Pressure Humidity
    00:00 -1°C° 0 mm 3 mps 694 mmHg 60%
    01:00 -1°C° 0 mm 3 mps 694 mmHg 61%
    02:00 -1°C° 0 mm 3 mps 694 mmHg 61%
    03:00 0°C° 0 mm 3 mps 693 mmHg 53%
    04:00 0°C° 0 mm 3 mps 693 mmHg 55%
    05:00 0°C° 0 mm 3 mps 693 mmHg 57%
    06:00 -1°C° 0 mm 2 mps 693 mmHg 59%
    07:00 +1°C° 0 mm 2 mps 694 mmHg 58%
    08:00 +2°C° 0 mm 2 mps 694 mmHg 57%
    09:00 +2°C° 0 mm 2 mps 694 mmHg 56%
    10:00 +3°C° 0 mm 2 mps 694 mmHg 55%
    11:00 +5°C° 0 mm 1 mps 694 mmHg 53%
    12:00 +6°C° 0 mm 1 mps 694 mmHg 52%
    13:00 +6°C° 0 mm 1 mps 694 mmHg 53%
    14:00 +7°C° 0 mm 1 mps 694 mmHg 54%
    15:00 +7°C° 0 mm 1 mps 694 mmHg 55%
    16:00 +5°C° 0 mm 1 mps 694 mmHg 60%
    17:00 +4°C° 0 mm 1 mps 694 mmHg 65%
    18:00 +3°C° 0 mm 1 mps 695 mmHg 70%
    19:00 +2°C° 0 mm 1 mps 695 mmHg 69%
    20:00 +2°C° 0 mm 1 mps 695 mmHg 68%
    21:00 +2°C° 0 mm 1 mps 695 mmHg 67%
    22:00 +2°C° 0 mm 1 mps 695 mmHg 67%
    23:00 +1°C° 0 mm 1 mps 695 mmHg 66%

    Tomorrow, 24 January, Thursday

    Time Temperature Precipitation Wind Pressure Humidity
    00:00 +1°C° 0 mm 1 mps 696 mmHg 66%
    01:00 +1°C° 0 mm 1 mps 696 mmHg 66%
    02:00 +1°C° 0 mm 1 mps 696 mmHg 66%
    03:00 +1°C° 0 mm 1 mps 696 mmHg 66%
    04:00 -1°C° 0 mm 2 mps 695 mmHg 65%
    05:00 -1°C° 0 mm 2 mps 695 mmHg 65%
    06:00 -2°C° 0 mm 2 mps 695 mmHg 65%
    07:00 -1°C° 0 mm 2 mps 695 mmHg 62%
    08:00 +1°C° 0 mm 2 mps 695 mmHg 60%
    09:00 +2°C° 0 mm 2 mps 695 mmHg 58%
    10:00 +3°C° 0 mm 2 mps 695 mmHg 55%
    11:00 +6°C° 0 mm 1 mps 695 mmHg 53%
    12:00 +7°C° 0 mm 1 mps 694 mmHg 50%
    13:00 +7°C° 0 mm 1 mps 694 mmHg 50%
    14:00 +8°C° 0 mm 1 mps 694 mmHg 51%
    15:00 +8°C° 0 mm 1 mps 693 mmHg 51%
    16:00 +6°C° 0 mm 2 mps 693 mmHg 56%
    17:00 +4°C° 0 mm 2 mps 694 mmHg 60%
    18:00 +3°C° 0 mm 2 mps 694 mmHg 64%
    19:00 +3°C° 0 mm 2 mps 694 mmHg 63%
    20:00 +3°C° 0 mm 2 mps 694 mmHg 63%
    21:00 +3°C° 0 mm 2 mps 694 mmHg 63%
    22:00 +3°C° 0 mm 2 mps 694 mmHg 63%
    23:00 +3°C° 0 mm 2 mps 693 mmHg 62%

    Day after tomorrow, 25 January, Friday

    Time Temperature Precipitation Wind Pressure Humidity
    00:00 +3°C° 0 mm 2 mps 693 mmHg 62%
    01:00 +2°C° 0 mm 2 mps 693 mmHg 62%
    02:00 +1°C° 0 mm 3 mps 693 mmHg 62%
    03:00 +1°C° 0 mm 3 mps 693 mmHg 61%
    04:00 +1°C° 0 mm 3 mps 692 mmHg 61%
    05:00 +2°C° 0 mm 3 mps 692 mmHg 61%
    06:00 +3°C° 0 mm 2 mps 692 mmHg 61%
    07:00 +2°C° 0 mm 3 mps 692 mmHg 61%
    08:00 +3°C° 0 mm 3 mps 692 mmHg 61%
    09:00 +3°C° 0 mm 3 mps 692 mmHg 61%
    10:00 +4°C° 0 mm 3 mps 692 mmHg 60%
    11:00 +6°C° 0 mm 2 mps 692 mmHg 58%
    12:00 +7°C° 0 mm 2 mps 692 mmHg 57%
    13:00 +8°C° 0 mm 2 mps 691 mmHg 56%
    14:00 +8°C° 0 mm 2 mps 691 mmHg 56%
    15:00 +8°C° 0 mm 2 mps 691 mmHg 55%
    16:00 +7°C° 0 mm 2 mps 691 mmHg 59%
    17:00 +6°C° 0 mm 2 mps 691 mmHg 63%
    18:00 +3°C° 0 mm 3 mps 691 mmHg 67%
    19:00 +3°C° 0 mm 3 mps 691 mmHg 66%
    20:00 +3°C° 0 mm 3 mps 692 mmHg 65%
    21:00 +3°C° 0 mm 3 mps 692 mmHg 64%
    22:00 +3°C° 0 mm 3 mps 692 mmHg 64%
    23:00 +2°C° 0 mm 3 mps 692 mmHg 63%

    26 January, Saturday

    Time Temperature Precipitation Wind Pressure Humidity
    00:00 +2°C° 0 mm 3 mps 692 mmHg 63%
    01:00 +2°C° 0 mm 3 mps 692 mmHg 63%
    02:00 +2°C° 0 mm 3 mps 692 mmHg 63%
    03:00 +2°C° 0 mm 3 mps 692 mmHg 62%
    04:00 +2°C° 0 mm 3 mps 691 mmHg 62%
    05:00 +2°C° 0 mm 3 mps 691 mmHg 62%
    06:00 +2°C° 0 mm 3 mps 691 mmHg 62%
    07:00 +3°C° 0 mm 3 mps 691 mmHg 61%
    08:00 +3°C° 0 mm 3 mps 692 mmHg 59%
    09:00 +4°C° 0 mm 3 mps 692 mmHg 57%
    10:00 +6°C° 0 mm 2 mps 691 mmHg 53%
    11:00 +8°C° 0 mm 2 mps 691 mmHg 49%
    12:00 +9°C° 0 mm 2 mps 691 mmHg 46%
    13:00 +9°C° 0 mm 2 mps 690 mmHg 46%
    14:00 +10°C° 0 mm 2 mps 690 mmHg 46%
    15:00 +11°C° 0 mm 1 mps 690 mmHg 47%
    16:00 +9°C° 0 mm 1 mps 690 mmHg 52%
    17:00 +8°C° 0 mm 1 mps 690 mmHg 57%
    18:00 +6°C° 0 mm 2 mps 690 mmHg 62%
    19:00 +5°C° 0 mm 2 mps 690 mmHg 64%
    20:00 +5°C° 0 mm 2 mps 690 mmHg 65%
    21:00 +5°C° 0 mm 2 mps 690 mmHg 66%
    22:00 +5°C° 0 mm 2 mps 690 mmHg 66%
    23:00 +5°C° 0 mm 2 mps 689 mmHg 67%

    27 January, Sunday

    Time Temperature Precipitation Wind Pressure Humidity
    00:00 +4°C° 0 mm 2 mps 689 mmHg 68%
    01:00 +4°C° 0 mm 2 mps 689 mmHg 68%
    02:00 +4°C° 0 mm 2 mps 689 mmHg 69%
    03:00 +4°C° 0 mm 2 mps 689 mmHg 69%
    04:00 +4°C° 0 mm 2 mps 689 mmHg 70%
    05:00 +4°C° 0 mm 2 mps 689 mmHg 70%
    06:00 +4°C° 0 mm 2 mps 689 mmHg 70%
    07:00 +4°C° 0 mm 2 mps 689 mmHg 68%
    08:00 +6°C° 0 mm 1 mps 689 mmHg 66%
    09:00 +7°C° 0 mm 1 mps 689 mmHg 64%
    10:00 +7°C° 0.2 mm 1 mps 688 mmHg 66%
    11:00 +8°C° 0.2 mm 1 mps 688 mmHg 67%
    12:00 +9°C° 0.2 mm 1 mps 687 mmHg 68%
    13:00 +9°C° 0 mm 1 mps 687 mmHg 66%
    14:00 +10°C° 0 mm 1 mps 687 mmHg 64%
    15:00 +10°C° 0 mm 1 mps 687 mmHg 62%
    16:00 +9°C° 0 mm 1 mps 687 mmHg 66%
    17:00 +8°C° 0 mm 1 mps 688 mmHg 70%
    18:00 +6°C° 0 mm 1 mps 688 mmHg 74%
    19:00 +6°C° 0 mm 1 mps 688 mmHg 73%
    20:00 +6°C° 0 mm 1 mps 689 mmHg 72%
    21:00 +5°C° 0 mm 2 mps 689 mmHg 71%
    22:00 +5°C° 0 mm 2 mps 689 mmHg 70%
    23:00 +4°C° 0 mm 2 mps 689 mmHg 69%

    28 January, Monday

    Time Temperature Precipitation Wind Pressure Humidity
    00:00 +4°C° 0 mm 2 mps 689 mmHg 69%
    01:00 +4°C° 0 mm 2 mps 689 mmHg 68%
    02:00 +4°C° 0 mm 2 mps 689 mmHg 68%
    03:00 +4°C° 0 mm 2 mps 689 mmHg 68%
    04:00 +4°C° 0 mm 2 mps 689 mmHg 68%
    05:00 +4°C° 0 mm 2 mps 689 mmHg 67%
    06:00 +3°C° 0 mm 2 mps 689 mmHg 67%
    07:00 +4°C° 0 mm 2 mps 688 mmHg 65%
    08:00 +6°C° 0 mm 1 mps 688 mmHg 63%
    09:00 +6°C° 0 mm 1 mps 688 mmHg 61%
    10:00 +7°C° 0 mm 1 mps 688 mmHg 61%
    11:00 +7°C° 0 mm 1 mps 687 mmHg 61%
    12:00 +8°C° 0 mm 1 mps 687 mmHg 61%
    13:00 +8°C° 0.3 mm 1 mps 687 mmHg 65%
    14:00 +6°C° 0.3 mm 0 mps 687 mmHg 69%
    15:00 +6°C° 0.3 mm 0 mps 686 mmHg 73%
    16:00 +7°C° 0.2 mm 1 mps 687 mmHg 75%
    17:00 +6°C° 0.2 mm 1 mps 687 mmHg 78%
    18:00 +5°C° 0.2 mm 2 mps 687 mmHg 80%
    19:00 +5°C° 0.2 mm 2 mps 688 mmHg 80%
    20:00 +5°C° 0.2 mm 2 mps 688 mmHg 80%
    21:00 +5°C° 0.2 mm 2 mps 689 mmHg 80%
    22:00 +5°C° 0.1 mm 2 mps 689 mmHg 78%
    23:00 +5°C° 0.1 mm 2 mps 690 mmHg 77%
    Show more